User: anonymous   Login
Location: *
(50.2903°S, 172.5375°W)
Time: 22:19:49
(UTC+00:00)
Language:

Nadezhda 3 Rocket - Orbit

View from above orbital plane
View from above orbital plane
View from above satellite
View from above satellite

Ground track
Ground track

The orbit data is extracted from the following two-line orbital elements,

1 21153U 91019B   20027.26619793 +.00000165 +00000-0 +15471-3 0  9999
2 21153 082.9235 212.7182 0029242 006.8469 166.8444 13.75937486449595
Epoch (UTC): 27 January 2020 06:23:19
Eccentricity: 0.0029242
inclination: 82.9235°
perigee height: 957 km
apogee height: 1000 km
right ascension of ascending node: 212.7182°
argument of perigee: 6.8469°
revolutions per day: 13.75937486
mean anomaly at epoch: 166.8444°
orbit number at epoch: 44959

The dashed part of the orbit path shows where the satellite is in the earth's shadow,  

DLR